[[{"header":{"parameterUnit":"m.s-1","parameterCategory":1,"la1":30.2991,"la2":30.254,"lo1":-89.0895,"lo2":-89.0444,"dy":0.0017,"dx":0.0017,"nx":28,"ny":28,"refTime":"2025-08-17T03:00:00:Z","depth":0,"parameterNumber":2,"parameterNumberName":"U-component_of_WINDS"},"data":[0,0,0,0,0,0,0,0,0,0,0,0,0,0,0,0,0,0,0,0,0,0,0,0,0,0,0,0,0,0,0,0,0,0,0,0,0,0,0,0,0,0,0,0,0,0,0,0,0,0,0,0,0,0,0,0,0,0,1.7433,1.7435,0,1.7605,1.7607,1.7609,1.7659,1.7658,1.7657,1.7657,1.7836,1.7842,1.7847,0,0,0,0,0,0,0,0,0,0,0,0,0,1.715,1.7155,1.7433,1.7435,1.7437,1.7605,1.7607,1.7609,1.7659,1.7658,1.7657,1.7656,1.7834,1.7841,1.7848,0,0,0,0,0,0,0,0,0,0,0,0,0,1.7293,1.7157,1.7433,1.7482,1.7489,1.7604,1.7607,1.761,1.766,1.7658,1.7657,1.7656,1.7832,1.784,1.7849,1.7928,0,0,1.7875,1.7878,0,0,0,0,0,0,0,0,1.7285,1.7303,1.7473,1.7479,1.7486,1.7609,1.7573,1.7717,1.766,1.7595,1.7657,1.7655,1.7762,1.7776,1.7812,1.7937,1.7944,1.7875,1.788,1.7884,1.7886,0,0,0,0,0,0,0,1.7275,1.7296,1.7501,1.7475,1.7484,1.7497,1.7515,1.7601,1.7684,1.76,1.7604,1.7624,1.7765,1.7803,1.7816,1.7947,1.7875,1.7883,1.7888,1.7891,1.8144,1.8146,0,0,0,0,0,0,1.7256,1.7287,1.7496,1.7506,1.738,1.7503,1.7524,1.7571,1.7683,1.7699,1.7625,1.7626,1.7789,1.7806,1.7823,1.7922,1.7884,1.7892,1.7897,1.8143,1.8145,1.8146,0,0,0,0,0,0,1.725,1.7274,1.7489,1.7398,1.7426,1.7509,1.7562,1.7575,1.7613,1.7702,1.7717,1.7648,1.7789,1.7811,1.7901,1.7929,1.7896,1.7903,1.8141,1.8143,1.8146,1.8122,0,0,0,0,0,0,1.7241,1.7272,1.7302,1.7398,1.7431,1.7564,1.7564,1.758,1.7627,1.763,1.7728,1.7743,1.779,1.7888,1.7909,1.794,1.791,1.8139,1.8142,1.8145,1.8121,1.8123,1.8126,0,0,0,0,0,1.7231,1.729,1.7304,1.7329,1.7471,1.7565,1.7584,1.7636,1.7629,1.7661,1.7718,1.7739,1.7922,1.7897,1.7921,1.7955,1.8137,1.8141,1.8145,1.8119,1.8123,1.8125,0,0,0,0,0,0,1.7198,1.7304,1.732,1.7412,1.7479,1.7574,1.7616,1.7638,1.771,1.7709,1.7772,1.7793,1.7879,1.7926,1.7896,1.8037,1.803,1.8039,1.8003,1.8007,1.8009,1.7996,1.7917,0,0,0,0,0,1.72,1.7267,1.7357,1.7429,1.7462,1.7532,1.7576,1.7609,1.7682,1.7711,1.7774,1.7845,1.7918,1.7965,1.8037,1.8127,1.8149,1.8162,1.8165,1.8166,1.8173,1.8223,1.823,1.8159,1.8159,1.8159,0,0,1.7208,1.7274,1.7313,1.7424,1.748,1.7548,1.7556,1.7628,1.7679,1.7723,1.7811,1.7859,1.7942,1.8032,1.8075,1.8074,1.8197,1.8171,1.8172,1.8178,1.8227,1.8234,1.824,1.8161,1.8161,1.816,0,0,1.7256,1.7313,1.7379,1.7434,1.7517,1.7564,1.7579,1.767,1.7703,1.7793,1.7826,1.7888,1.8013,1.807,1.8115,1.8181,1.8204,1.8203,1.8216,1.8264,1.8269,1.8275,1.8297,1.8305,1.821,1.821,1.821,0,1.7255,1.7358,1.741,1.7479,1.7527,1.7566,1.7633,1.7685,1.7788,1.782,1.7817,1.7973,1.8032,1.8135,1.8151,1.8186,1.8206,1.8193,1.8264,1.827,1.8276,1.8298,1.8306,1.8209,1.8209,1.8209,1.8209,0,1.7352,1.7422,1.7465,1.7562,1.7614,1.7682,1.7744,1.7791,1.782,1.7866,1.7956,1.8027,1.8113,1.814,1.817,1.8247,1.8244,1.8252,1.8247,1.8281,1.8303,1.8312,1.8208,1.8208,1.8208,1.8209,0,0,1.7386,1.7508,1.7523,1.7566,1.766,1.7716,1.7785,1.7868,1.7906,1.7976,1.8035,1.8138,1.8145,1.8197,1.8233,1.8275,1.8321,1.8278,1.8281,1.8282,1.8409,1.8402,1.8411,1.8336,1.8338,1.8339,1.8401,0,1.7445,1.7569,1.7616,1.7717,1.7782,1.782,1.788,1.7944,1.7989,1.8051,1.8101,1.8173,1.8177,1.8208,1.8251,1.8306,1.8347,1.8302,1.8392,1.8394,1.837,1.8422,1.8416,1.8471,1.841,1.8412,1.8413,0,1.7532,1.7599,1.7706,1.779,1.7819,1.7872,1.795,1.8009,1.8082,1.8112,1.8167,1.82,1.8274,1.8263,1.8365,1.8334,1.8373,1.8405,1.8409,1.8419,1.8406,1.8434,1.849,1.8498,1.8427,1.8426,1.8425,0,1.7544,1.7662,1.7741,1.7777,1.7877,1.7913,1.7956,1.8028,1.8074,1.8143,1.8173,1.825,1.8292,1.8351,1.8404,1.8392,1.8501,1.8495,1.8528,1.8526,1.8549,1.8547,1.8612,1.8575,1.8575,1.8575,1.8574,0,1.7605,1.7669,1.7747,1.7796,1.7868,1.7922,1.7992,1.8038,1.8101,1.8159,1.8196,1.825,1.8317,1.8379,1.8421,1.8498,1.8518,1.8544,1.8554,1.854,1.8537,1.8567,1.8564,1.8577,1.8576,1.8576,1.8576,0,1.7632,1.7687,1.7775,1.7861,1.7884,1.7933,1.8007,1.8056,1.8101,1.8174,1.8194,1.8266,1.8341,1.8399,1.8498,1.8525,1.8607,1.8619,1.8582,1.8587,1.8616,1.8612,1.8703,1.8717,1.867,1.867,1.8671,0,1.7668,1.7717,1.7807,1.7848,1.789,1.7956,1.8002,1.8056,1.8103,1.8188,1.8226,1.8303,1.8368,1.8487,1.8548,1.8623,1.8636,1.8663,1.8648,1.8632,1.8636,1.8632,1.8637,1.8665,1.8665,1.8665,1.8665,0,1.7725,1.7748,1.7813,1.7886,1.7939,1.8,1.8062,1.8094,1.8159,1.8209,1.8285,1.8335,1.8434,1.851,1.8591,1.8637,1.8662,1.8669,1.868,1.8667,1.8643,1.8655,1.8586,1.8667,1.8667,1.8667,1.8667,1.8667,1.7757,1.7801,1.7871,1.7941,1.7992,1.8048,1.8097,1.8147,1.8211,1.8295,1.8323,1.8401,1.8471,1.8582,1.8628,1.869,1.8691,1.8708,1.8712,1.8715,1.8713,1.8633,1.8705,1.8705,1.8705,1.8705,1.8705,0,1.7815,1.7861,1.7924,1.8008,1.8062,1.8079,1.8147,1.8192,1.826,1.8323,1.8384,1.8471,1.8544,1.861,1.8686,1.8723,1.8737,1.8742,1.8739,1.8749,1.8709,1.8691,1.8729,1.8729,1.8729,1.8729,1.8729,1.8729,1.7851,1.7927,1.7959,1.806,1.8107,1.8182,1.8219,1.8271,1.8321,1.8415,1.8475,1.8517,1.8581,1.8661,1.8729,1.8747,1.8773,1.8774,1.8795,1.8756,1.8752,1.8749,1.8733,1.878,1.878,1.883,1.8831,1.8831]},{"header":{"parameterUnit":"m.s-1","parameterCategory":1,"la1":30.2991,"la2":30.254,"lo1":-89.0895,"lo2":-89.0444,"dy":0.0017,"dx":0.0017,"nx":28,"ny":28,"refTime":"2025-08-17T03:00:00:Z","depth":0,"parameterNumber":3,"parameterNumberName":"V-component_of_WINDS"},"data":[0,0,0,0,0,0,0,0,0,0,0,0,0,0,0,0,0,0,0,0,0,0,0,0,0,0,0,0,0,0,0,0,0,0,0,0,0,0,0,0,0,0,0,0,0,0,0,0,0,0,0,0,0,0,0,0,0,0,-0.1722,-0.1723,0,-0.1844,-0.1845,-0.1846,-0.1928,-0.1929,-0.193,-0.193,-0.2058,-0.2061,-0.2064,0,0,0,0,0,0,0,0,0,0,0,0,0,-0.1566,-0.1568,-0.1722,-0.1723,-0.1725,-0.1843,-0.1845,-0.1847,-0.1928,-0.1929,-0.193,-0.193,-0.2057,-0.2061,-0.2064,0,0,0,0,0,0,0,0,0,0,0,0,0,-0.1655,-0.1569,-0.1721,-0.178,-0.1786,-0.1843,-0.1845,-0.1847,-0.1928,-0.1929,-0.193,-0.1931,-0.2056,-0.206,-0.2065,-0.2074,0,0,-0.2078,-0.208,0,0,0,0,0,0,0,0,-0.165,-0.1661,-0.177,-0.1776,-0.1783,-0.1872,-0.1837,-0.1923,-0.1928,-0.1874,-0.193,-0.1931,-0.1996,-0.2005,-0.2026,-0.208,-0.2086,-0.2078,-0.2081,-0.2083,-0.2084,0,0,0,0,0,0,0,-0.1644,-0.1656,-0.177,-0.1771,-0.1779,-0.1802,-0.1815,-0.1854,-0.1929,-0.1879,-0.1885,-0.1898,-0.2,-0.2022,-0.203,-0.2088,-0.2078,-0.2082,-0.2085,-0.2086,-0.216,-0.2159,0,0,0,0,0,0,-0.1628,-0.165,-0.1766,-0.1774,-0.1717,-0.1804,-0.1819,-0.1842,-0.1929,-0.1943,-0.1898,-0.1902,-0.2014,-0.2025,-0.2035,-0.2053,-0.2083,-0.2087,-0.2089,-0.216,-0.216,-0.2159,0,0,0,0,0,0,-0.1624,-0.1637,-0.1761,-0.1714,-0.1731,-0.1806,-0.1831,-0.1844,-0.1867,-0.1943,-0.1957,-0.1906,-0.2015,-0.2028,-0.2064,-0.2059,-0.2089,-0.2093,-0.2161,-0.216,-0.2159,-0.2089,0,0,0,0,0,0,-0.1619,-0.1635,-0.1638,-0.1713,-0.1733,-0.1787,-0.1831,-0.1846,-0.1873,-0.188,-0.1954,-0.1967,-0.2017,-0.2057,-0.2069,-0.2065,-0.2096,-0.2162,-0.2161,-0.216,-0.2093,-0.2086,-0.2081,0,0,0,0,0,-0.1613,-0.1614,-0.1638,-0.1651,-0.1738,-0.1786,-0.1798,-0.1854,-0.1872,-0.1877,-0.1927,-0.1965,-0.2058,-0.206,-0.2074,-0.2072,-0.2163,-0.2161,-0.216,-0.2095,-0.2087,-0.2081,0,0,0,0,0,0,-0.1537,-0.1625,-0.1652,-0.1677,-0.1723,-0.18,-0.1807,-0.1843,-0.1887,-0.1891,-0.196,-0.1976,-0.2005,-0.2043,-0.2044,-0.2087,-0.2115,-0.2116,-0.2061,-0.2055,-0.2049,-0.2039,-0.21,0,0,0,0,0,-0.1522,-0.1552,-0.1629,-0.1643,-0.1665,-0.1732,-0.1755,-0.1794,-0.1846,-0.1866,-0.1918,-0.1968,-0.2009,-0.2034,-0.2076,-0.2099,-0.2118,-0.2104,-0.2098,-0.2093,-0.2093,-0.2111,-0.2107,-0.2154,-0.2154,-0.2154,0,0,-0.1494,-0.1546,-0.156,-0.1629,-0.167,-0.1701,-0.1748,-0.1779,-0.1804,-0.1871,-0.1908,-0.1948,-0.2009,-0.2039,-0.2055,-0.2071,-0.2085,-0.2091,-0.2087,-0.209,-0.2109,-0.2104,-0.21,-0.2153,-0.2153,-0.2153,0,0,-0.1457,-0.1499,-0.1516,-0.1556,-0.1618,-0.1663,-0.1667,-0.1739,-0.1768,-0.1806,-0.1858,-0.189,-0.1958,-0.2,-0.203,-0.2013,-0.205,-0.2025,-0.1993,-0.201,-0.2006,-0.2003,-0.1998,-0.1995,-0.2024,-0.2024,-0.2024,0,-0.1414,-0.1462,-0.1521,-0.1549,-0.1579,-0.1642,-0.1661,-0.1698,-0.177,-0.179,-0.1807,-0.1895,-0.194,-0.1982,-0.1978,-0.2,-0.2009,-0.2016,-0.2001,-0.1999,-0.1997,-0.1994,-0.1991,-0.2021,-0.2021,-0.2022,-0.2022,0,-0.1406,-0.1439,-0.1446,-0.1514,-0.1544,-0.1568,-0.1633,-0.1658,-0.1695,-0.1739,-0.1779,-0.1836,-0.1891,-0.1904,-0.194,-0.1952,-0.196,-0.1988,-0.2017,-0.1988,-0.1986,-0.1985,-0.2016,-0.2017,-0.2018,-0.2019,0,0,-0.1323,-0.1424,-0.1426,-0.1458,-0.1532,-0.1559,-0.1588,-0.1641,-0.1661,-0.171,-0.1736,-0.1794,-0.1822,-0.1856,-0.1898,-0.1912,-0.1898,-0.194,-0.1942,-0.193,-0.1916,-0.1894,-0.1891,-0.1924,-0.1923,-0.1923,-0.1911,0,-0.1298,-0.1349,-0.1405,-0.1438,-0.147,-0.1532,-0.1557,-0.1606,-0.1649,-0.1685,-0.1733,-0.1773,-0.1805,-0.1827,-0.1844,-0.1895,-0.1895,-0.1897,-0.1951,-0.1952,-0.1933,-0.189,-0.1866,-0.1851,-0.191,-0.191,-0.191,0,-0.1275,-0.132,-0.1356,-0.1429,-0.1444,-0.1465,-0.152,-0.1553,-0.1611,-0.1642,-0.1681,-0.1727,-0.1762,-0.1788,-0.1839,-0.1839,-0.1865,-0.1894,-0.1895,-0.1902,-0.1928,-0.1896,-0.1848,-0.1846,-0.1909,-0.1909,-0.1909,0,-0.1211,-0.1281,-0.1313,-0.1338,-0.1424,-0.1437,-0.1474,-0.1533,-0.1562,-0.1611,-0.1632,-0.1684,-0.1713,-0.1754,-0.1813,-0.1826,-0.1859,-0.1889,-0.1887,-0.1885,-0.189,-0.1889,-0.1846,-0.1906,-0.1906,-0.1906,-0.1906,0,-0.1178,-0.1197,-0.1285,-0.1304,-0.133,-0.1395,-0.1419,-0.1461,-0.1514,-0.1544,-0.1601,-0.1629,-0.1706,-0.1744,-0.1791,-0.1828,-0.184,-0.1867,-0.1879,-0.1862,-0.1858,-0.1879,-0.1882,-0.1906,-0.1906,-0.1906,-0.1906,0,-0.111,-0.117,-0.1208,-0.1286,-0.1306,-0.1321,-0.139,-0.1412,-0.1459,-0.1497,-0.151,-0.1584,-0.1632,-0.1696,-0.1763,-0.1795,-0.1826,-0.1845,-0.1805,-0.1813,-0.1807,-0.1807,-0.1776,-0.1776,-0.1835,-0.1834,-0.1834,0,-0.1084,-0.1101,-0.1181,-0.1205,-0.124,-0.1277,-0.1308,-0.1374,-0.1404,-0.1473,-0.1488,-0.154,-0.1584,-0.1658,-0.1719,-0.1772,-0.1794,-0.1779,-0.1802,-0.1784,-0.1795,-0.1793,-0.1796,-0.1773,-0.1772,-0.1771,-0.1771,0,-0.1033,-0.1062,-0.1102,-0.1154,-0.1189,-0.1233,-0.128,-0.1297,-0.1374,-0.1405,-0.1454,-0.1489,-0.1559,-0.161,-0.1672,-0.1712,-0.1755,-0.1763,-0.1766,-0.1748,-0.1724,-0.1738,-0.179,-0.1764,-0.1764,-0.1765,-0.1765,-0.1765,-0.0986,-0.1005,-0.1064,-0.1109,-0.1151,-0.1195,-0.122,-0.127,-0.1312,-0.1373,-0.141,-0.1458,-0.152,-0.1606,-0.1645,-0.1685,-0.1702,-0.1705,-0.1706,-0.1706,-0.17,-0.1718,-0.1697,-0.1697,-0.1698,-0.1698,-0.1698,0,-0.0938,-0.098,-0.102,-0.1084,-0.112,-0.1156,-0.1212,-0.1239,-0.128,-0.1333,-0.1377,-0.1435,-0.1486,-0.1552,-0.1608,-0.1628,-0.1649,-0.1641,-0.164,-0.1649,-0.1682,-0.1674,-0.1623,-0.1623,-0.1623,-0.1623,-0.1623,-0.1623,-0.0917,-0.0951,-0.0988,-0.1044,-0.1087,-0.1133,-0.1162,-0.1203,-0.1246,-0.1308,-0.135,-0.1393,-0.1452,-0.1514,-0.1563,-0.1582,-0.16,-0.1586,-0.161,-0.164,-0.1646,-0.1653,-0.1646,-0.1589,-0.1589,-0.1574,-0.1574,-0.1574]}]]